Location: McCloud Nature Park
(39.8272°N, 86.6824°W)
Time: 18:16:07
(UTC-05:00)

Amateur Radio Satellites - All Passes

Search period start: 24 August 2016 17:46
Search period end: 25 August 2016 17:46
Location: McCloud Nature Park, 39.8272°N, 86.6824°W

Satellite Date Start Highest point End Downlink Frequencies (MHz)
Time Altitude Azimuth
HORYU 2 24 Aug 18:03:38 18:06:56 20° 266° (W) 18:10:16 437.375
YUBILEINY 24 Aug 18:06:26 18:15:16 83° 82° (E) 18:23:59 435.215
CINEMA 3 24 Aug 18:24:54 18:27:25 14° 63° (ENE) 18:29:55 145.822/145.860
GOMX 1 24 Aug 18:28:01 18:32:57 80° 258° (WSW) 18:38:15 467.674
STARS 24 Aug 18:29:39 18:32:36 18° 295° (WNW) 18:35:31 437.465
CUBESAT XI-V 24 Aug 18:32:36 18:37:09 49° 287° (WNW) 18:41:40 437.345
CANX-2 24 Aug 18:34:49 18:36:07 11° 63° (ENE) 18:37:24 2200.000
BRITE-PL 24 Aug 18:34:54 18:39:02 30° 266° (W) 18:43:28 437.365/2234.400
Cubesat XI-IV 24 Aug 18:35:59 18:41:17 64° 258° (WSW) 18:46:37 437.490
BEESAT 2 24 Aug 18:37:37 18:39:16 12° 42° (NE) 18:40:54 435.950
Cosmos 2504 24 Aug 18:39:36 18:46:35 47° 76° (ENE) 18:53:24 435.465 / 435.565
LilacSat-2 24 Aug 18:39:51 18:43:34 45° 261° (W) 18:47:16 437.200
CUTE 1.7 + AOD 2 24 Aug 18:41:28 18:42:56 12° 64° (ENE) 18:44:23 437.475
CUTE-I 24 Aug 18:49:16 18:54:23 47° 261° (W) 18:59:33 437.470
DOVE 4 24 Aug 18:52:26 18:57:29 84° 78° (ENE) 19:02:48 437.250
NOAA 18 24 Aug 18:59:22 19:04:37 43° 261° (W) 19:09:53 137.9125
HO-68 24 Aug 19:00:11 19:06:43 39° 65° (ENE) 19:13:16 435.675
BEESAT 3 24 Aug 19:01:34 19:05:12 33° 52° (NE) 19:08:48 437.485
NOAA 15 24 Aug 19:03:04 19:07:28 27° 264° (W) 19:11:55 137.62
COMPASS 1 24 Aug 19:07:09 19:07:51 10° 63° (ENE) 19:08:33 437.405
Cosmos 2491 24 Aug 19:41:25 19:49:48 51° 284° (WNW) 19:58:18 435.465 / 435.565
AIST 1 24 Aug 19:47:49 19:49:54 13° 70° (ENE) 19:52:00
SEEDS 24 Aug 19:53:01 19:57:03 51° 74° (ENE) 20:01:06 437.485
CINEMA 3 24 Aug 19:58:54 20:03:54 73° 259° (WSW) 20:08:55 145.822/145.860
STRAND 1 24 Aug 20:05:08 20:10:15 74° 103° (ESE) 20:15:21 437.568
YUBILEINY 24 Aug 20:05:16 20:10:53 19° 282° (WNW) 20:16:29 435.215
CANX-2 24 Aug 20:07:15 20:11:25 63° 259° (WSW) 20:15:36 2200.000
BEESAT 2 24 Aug 20:13:36 20:17:37 80° 240° (WSW) 20:21:36 435.950
CUTE 1.7 + AOD 2 24 Aug 20:14:05 20:18:14 61° 259° (W) 20:22:25 437.475
Cosmos 2504 24 Aug 20:33:36 20:39:34 29° 275° (W) 20:45:28 435.465 / 435.565
AAUSAT CUBESAT 2 24 Aug 20:34:08 20:38:13 84° 78° (ENE) 20:42:21 437.432
DOVE 4 24 Aug 20:34:31 20:35:51 11° 273° (W) 20:37:11 437.250
COMPASS 1 24 Aug 20:38:44 20:42:50 66° 259° (W) 20:46:57 437.405
BEESAT 3 24 Aug 20:39:42 20:42:39 20° 248° (WSW) 20:45:35 437.485
CUBEBUG 2 24 Aug 20:40:27 20:45:11 89° 256° (WSW) 20:49:51 437.445
UWE-3 24 Aug 20:45:34 20:50:09 70° 76° (ENE) 20:54:40 435.000/436.395/437.385
Oscar 11 24 Aug 20:46:15 20:50:20 44° 73° (ENE) 20:54:26 145.826/435.025
HO-68 24 Aug 20:47:43 20:54:21 40° 262° (W) 21:01:04 435.675
FUNcube-1 24 Aug 20:48:49 20:53:04 44° 73° (ENE) 20:57:16 145.935
HUMSAT D 24 Aug 20:53:23 20:53:29 10° 63° (ENE) 20:53:37 437.325/437.525
DELFI C3 24 Aug 21:07:41 21:11:05 29° 71° (ENE) 21:14:31 145.870
ZACube-1 24 Aug 21:08:04 21:12:34 79° 75° (ENE) 21:17:00 437.345
PCSat 24 Aug 21:11:51 21:16:48 35° 53° (NE) 21:21:43 145.827
PRISM 24 Aug 21:22:26 21:26:33 54° 100° (E) 21:30:39 437.425
AIST 1 24 Aug 21:23:33 21:27:51 52° 266° (W) 21:32:06
SEEDS 24 Aug 21:31:22 21:33:03 12° 269° (W) 21:34:42 437.485
AUBIESAT-1 24 Aug 21:31:25 21:34:01 15° 58° (ENE) 21:36:39 437.475
M-CUBED/EXP-1 PRIME 24 Aug 21:33:17 21:36:33 19° 60° (ENE) 21:39:51 437.505
STRAND 1 24 Aug 21:46:15 21:48:47 14° 299° (WNW) 21:51:19 437.568
AIST 2 24 Aug 21:56:01 22:00:07 51° 55° (NE) 22:04:11 435.215
ESTCUBE 1 24 Aug 22:12:41 22:15:09 15° 64° (ENE) 22:17:37 437.505/2401.250
TIGRISAT 24 Aug 22:19:06 22:22:20 21° 94° (E) 22:25:33 435.000
GONETS M04 24 Aug 22:21:24 22:28:38 27° 68° (ENE) 22:35:48
Oscar 11 24 Aug 22:24:09 22:26:40 15° 268° (W) 22:29:13 145.826/435.025
HUMSAT D 24 Aug 22:24:21 22:28:32 70° 258° (WSW) 22:32:41 437.325/437.525
UWE-3 24 Aug 22:25:58 22:27:01 11° 270° (W) 22:28:03 435.000/436.395/437.385
FUNcube-1 24 Aug 22:26:42 22:29:29 16° 268° (W) 22:32:15 145.935
AISAT 24 Aug 22:34:59 22:37:25 15° 63° (ENE) 22:39:51 437.250
DELFI C3 24 Aug 22:43:08 22:45:57 19° 266° (W) 22:48:47 145.870
UNISAT 6 24 Aug 22:45:54 22:50:03 45° 99° (E) 22:54:07 437.425
PCSat 24 Aug 22:55:19 23:00:07 33° 251° (WSW) 23:04:54 145.827
50 SAT 24 Aug 22:55:25 22:57:49 17° 68° (ENE) 23:00:15 437.505
PRISM 24 Aug 22:59:29 23:01:23 13° 296° (WNW) 23:03:17 437.425
UKube-1 24 Aug 23:02:19 23:04:35 14° 64° (ENE) 23:06:53 .
AUBIESAT-1 24 Aug 23:03:22 23:07:55 65° 254° (WSW) 23:12:33 437.475
M-CUBED/EXP-1 PRIME 24 Aug 23:06:10 23:10:38 50° 256° (WSW) 23:15:15 437.505
QB50P2 24 Aug 23:06:45 23:07:11 10° 90° (E) 23:07:37 145.880/145.840
POLYITAN 1 24 Aug 23:09:08 23:09:43 10° 90° (E) 23:10:18 437.675
NANOSAT C BR1 24 Aug 23:19:35 23:21:39 13° 91° (E) 23:23:42 145.865
VELOX 1 24 Aug 23:20:40 23:24:49 41° 71° (ENE) 23:29:00 145.980
SO-50 24 Aug 23:22:50 23:25:57 17° 109° (ESE) 23:29:02 436.795
ANTELSAT 24 Aug 23:22:57 23:27:14 68° 285° (WNW) 23:31:27 437.575/2403.000
O/OREOS (USA 219) 24 Aug 23:26:54 23:30:07 18° 56° (ENE) 23:33:18 437.305
JAS-2 24 Aug 23:30:06 23:34:07 16° 91° (E) 23:38:19 435.910
CUBEBUG 1 24 Aug 23:31:16 23:35:36 65° 74° (ENE) 23:40:00 437.445
AIST 2 24 Aug 23:35:53 23:38:09 14° 251° (WSW) 23:40:25 435.215
Cosmos 2499 24 Aug 23:46:47 23:53:50 66° 80° (E) 00:00:53 435.465 / 435.565
ESTCUBE 1 24 Aug 23:47:07 23:51:29 54° 260° (W) 23:55:54 437.505/2401.250
DX 1 24 Aug 23:49:05 23:53:21 58° 74° (ENE) 23:57:40 434.975-435.025
TIGRISAT 24 Aug 23:55:17 23:59:05 31° 290° (WNW) 00:02:49 435.000
CUSAT 1 24 Aug 23:56:16 23:58:56 63° 97° (E) 00:02:05 437.405
QB50P1 25 Aug 00:00:03 00:04:04 41° 99° (E) 00:08:03 145.935-145.965
SPROUT 25 Aug 00:04:24 00:08:39 61° 74° (ENE) 00:12:55 437.525
AISAT 25 Aug 00:09:04 00:13:24 54° 259° (W) 00:17:48 437.250
POPSAT HIP 1 25 Aug 00:09:38 00:13:48 53° 100° (E) 00:17:54 437.405
RS-15 25 Aug 00:11:55 00:19:43 22° 98° (E) 00:27:43 29.354- 29.394
BUGSAT 1 25 Aug 00:15:25 00:18:42 22° 95° (E) 00:21:55 437.445
GONETS M04 25 Aug 00:17:21 00:26:06 66° 268° (W) 00:34:49
DANDE 25 Aug 00:22:43 00:24:59 26° 94° (E) 00:27:14 436.750
UNISAT 6 25 Aug 00:23:49 00:26:22 16° 295° (WNW) 00:28:55 437.425
50 SAT 25 Aug 00:28:10 00:31:13 26° 263° (W) 00:34:17 437.505
UKube-1 25 Aug 00:35:57 00:40:10 53° 260° (W) 00:44:25 .
TISAT 1 25 Aug 00:36:01 00:39:42 29° 70° (ENE) 00:43:23 437.305
QB50P2 25 Aug 00:39:11 00:43:23 62° 286° (WNW) 00:47:32 145.880/145.840
DUCHIFAT 1 25 Aug 00:41:17 00:45:29 72° 286° (WNW) 00:49:38 145.980
POLYITAN 1 25 Aug 00:41:44 00:45:55 61° 286° (WNW) 00:50:03 437.675
NANOSAT C BR1 25 Aug 00:53:35 00:57:39 48° 287° (WNW) 01:01:40 145.865
VELOX 1 25 Aug 00:58:29 01:01:26 17° 267° (W) 01:04:25 145.980
SO-50 25 Aug 01:01:11 01:05:59 57° 305° (NW) 01:10:45 436.795
O/OREOS (USA 219) 25 Aug 01:05:21 01:09:45 46° 254° (WSW) 01:14:09 437.305
CUBEBUG 1 25 Aug 01:11:21 01:12:19 11° 270° (W) 01:13:16 437.445
JAS-2 25 Aug 01:12:56 01:19:37 87° 287° (WNW) 01:27:07 435.910
ITUPSAT 1 25 Aug 01:14:18 01:17:14 17° 63° (ENE) 01:20:10 437.325
DX 1 25 Aug 01:28:14 01:29:53 12° 269° (W) 01:31:33 434.975-435.025
QB50P1 25 Aug 01:36:51 01:39:29 16° 295° (WNW) 01:42:07 145.935-145.965
Cosmos 2499 25 Aug 01:41:28 01:46:10 19° 278° (W) 01:50:53 435.465 / 435.565
SPROUT 25 Aug 01:43:46 01:44:57 11° 270° (W) 01:46:09 437.525
POPSAT HIP 1 25 Aug 01:47:05 01:49:06 13° 296° (WNW) 01:51:06 437.405
SWISSCUBE 25 Aug 01:47:25 01:51:49 39° 70° (ENE) 01:56:13 437.505
BUGSAT 1 25 Aug 01:50:30 01:54:03 28° 291° (WNW) 01:57:32 437.445
Oscar 19 25 Aug 02:01:58 02:07:06 57° 100° (E) 02:12:13 437.125/150
BEESAT 25 Aug 02:04:40 02:09:17 53° 72° (ENE) 02:13:54 436.000
TISAT 1 25 Aug 02:11:59 02:15:20 22° 265° (W) 02:18:42 437.305
RS-15 25 Aug 02:18:47 02:30:18 88° 119° (ESE) 02:42:30 29.354- 29.394
GONETS M04 25 Aug 02:19:34 02:21:03 10° 287° (WNW) 02:22:32
SO-50 25 Aug 02:46:39 02:47:28 10° 325° (NW) 02:48:18 436.795
Gurwin Techsat 1B 25 Aug 02:46:54 02:52:12 69° 101° (ESE) 02:57:30 435.225
MOZHAYETS 4 25 Aug 02:47:28 02:50:47 20° 66° (ENE) 02:54:06
ITUPSAT 1 25 Aug 02:49:58 02:54:37 54° 260° (W) 02:59:18 437.325
JAS-2 25 Aug 03:00:03 03:03:56 16° 300° (WNW) 03:08:02 435.910
KKS-1 25 Aug 03:04:10 03:07:46 24° 67° (ENE) 03:11:23 437.445
PHONESAT 2.4 25 Aug 03:04:47 03:07:25 28° 155° (SSE) 03:10:04 2401.200-2431.200
ITAMSAT 1 25 Aug 03:09:29 03:14:08 33° 97° (E) 03:18:45 435.822/435.867
AO-7 25 Aug 03:11:52 03:17:50 21° 93° (E) 03:23:43 29.400- 29.500
SWISSCUBE 25 Aug 03:26:10 03:29:43 21° 266° (W) 03:33:17 437.505
Oscar 19 25 Aug 03:42:30 03:45:57 18° 297° (WNW) 03:49:24 437.125/150
BEESAT 25 Aug 03:44:34 03:47:21 15° 268° (W) 03:50:09 436.000
STARS 25 Aug 03:48:09 03:52:09 34° 70° (ENE) 03:56:11 437.465
Cosmos 2491 25 Aug 03:57:45 04:02:38 16° 60° (ENE) 04:07:31 435.465 / 435.565
CUBESAT XI-V 25 Aug 03:59:52 04:02:26 15° 64° (ENE) 04:05:02 437.345
MOZHAYETS 4 25 Aug 04:23:25 04:27:40 38° 262° (W) 04:31:56
Gurwin Techsat 1B 25 Aug 04:28:29 04:31:33 16° 299° (WNW) 04:34:37 435.225
RS-15 25 Aug 04:34:12 04:44:30 33° 326° (NNW) 04:55:15 29.354- 29.394
KKS-1 25 Aug 04:40:13 04:44:11 31° 263° (W) 04:48:10 437.445
PHONESAT 2.4 25 Aug 04:40:37 04:43:37 89° 334° (NNW) 04:46:37 2401.200-2431.200
ITAMSAT 1 25 Aug 04:49:03 04:53:29 29° 293° (WNW) 04:57:55 435.822/435.867
AO-85 25 Aug 05:00:42 05:04:10 18° 109° (ESE) 05:07:33 145.980
AO-7 25 Aug 05:03:01 05:11:21 78° 291° (WNW) 05:19:36 29.400- 29.500
BRITE-PL 25 Aug 05:03:35 05:05:41 12° 87° (E) 05:07:45 437.365/2234.400
YUBILEINY 25 Aug 05:13:20 05:18:55 19° 78° (ENE) 05:24:30 435.215
STARS 25 Aug 05:25:14 05:28:34 21° 266° (W) 05:31:56 437.465
CUBESAT XI-V 25 Aug 05:34:50 05:39:20 55° 260° (W) 05:43:53 437.345
NOAA 15 25 Aug 05:40:12 05:42:51 14° 91° (E) 05:45:30 137.62
STRAND 1 25 Aug 05:44:57 05:46:52 12° 60° (ENE) 05:48:46 437.568
Cosmos 2491 25 Aug 05:52:09 06:01:01 79° 82° (E) 06:09:52 435.465 / 435.565
HORYU 2 25 Aug 05:53:46 05:58:13 80° 102° (ESE) 06:02:37 437.375
LilacSat-2 25 Aug 06:14:36 06:17:18 19° 94° (E) 06:20:00 437.200
PHONESAT 2.4 25 Aug 06:17:01 06:20:01 85° 4° (N) 06:23:02 2401.200-2431.200
GOMX 1 25 Aug 06:30:55 06:35:57 36° 96° (E) 06:40:44 467.674
AO-85 25 Aug 06:38:58 06:44:14 63° 304° (NW) 06:49:15 145.980
BRITE-PL 25 Aug 06:39:03 06:44:48 88° 283° (WNW) 06:50:26 437.365/2234.400
DOVE 4 25 Aug 06:53:08 06:57:22 26° 93° (E) 07:01:24 437.250
Cubesat XI-IV 25 Aug 06:53:57 06:59:10 55° 100° (E) 07:04:22 437.490
RS-15 25 Aug 06:54:00 07:02:28 21° 1° (N) 07:11:02 29.354- 29.394
AO-7 25 Aug 06:57:46 07:02:48 18° 310° (NW) 07:07:51 29.400- 29.500
YUBILEINY 25 Aug 07:05:39 07:14:30 85° 277° (W) 07:23:25 435.215
CUTE-I 25 Aug 07:06:44 07:12:04 73° 103° (ESE) 07:17:22 437.470
Cosmos 2504 25 Aug 07:15:58 07:23:53 44° 89° (E) 07:31:20 435.465 / 435.565
NOAA 15 25 Aug 07:17:49 07:23:06 70° 287° (WNW) 07:28:23 137.62
STRAND 1 25 Aug 07:20:11 07:25:18 85° 257° (WSW) 07:30:26 437.568
NOAA 18 25 Aug 07:21:48 07:27:19 86° 106° (ESE) 07:32:47 137.9125
HORYU 2 25 Aug 07:33:57 07:34:05 10° 299° (WNW) 07:34:14 437.375
LilacSat-2 25 Aug 07:48:24 07:51:36 27° 289° (WNW) 07:54:47 437.200
Cosmos 2491 25 Aug 07:50:48 07:56:47 21° 281° (W) 08:02:46 435.465 / 435.565
CANX-2 25 Aug 07:53:28 07:56:50 22° 95° (E) 08:00:11 2200.000
PHONESAT 2.4 25 Aug 07:53:31 07:56:15 32° 203° (SSW) 07:58:59 2401.200-2431.200
SO-50 25 Aug 07:54:17 07:57:00 15° 40° (NE) 07:59:40 436.795
CINEMA 3 25 Aug 07:55:20 07:59:17 28° 95° (E) 08:03:03 145.822/145.860
CUTE 1.7 + AOD 2 25 Aug 08:00:09 08:03:33 23° 95° (E) 08:06:56 437.475
GOMX 1 25 Aug 08:09:12 08:13:49 29° 293° (WNW) 08:18:17 467.674
PRISM 25 Aug 08:11:08 08:14:50 34° 71° (ENE) 08:18:34 437.425
HO-68 25 Aug 08:15:39 08:22:25 43° 99° (E) 08:29:07 435.675
AAUSAT CUBESAT 2 25 Aug 08:18:36 08:20:44 14° 92° (E) 08:22:53 437.432
BRITE-PL 25 Aug 08:19:48 08:22:24 13° 300° (WNW) 08:24:59 437.365/2234.400
COMPASS 1 25 Aug 08:22:55 08:26:01 20° 94° (E) 08:29:06 437.405
AO-85 25 Aug 08:23:46 08:25:37 12° 322° (NW) 08:27:25 145.980
ISS 25 Aug 08:29:12 08:29:50 10° 128° (SE) 08:30:29 145.825
DOVE 4 25 Aug 08:30:27 08:35:04 35° 291° (WNW) 08:39:28 437.250
CUBEBUG 2 25 Aug 08:33:18 08:36:20 19° 93° (E) 08:39:18 437.445
Cubesat XI-IV 25 Aug 08:35:07 08:38:48 19° 297° (WNW) 08:42:29 437.490
UWE-3 25 Aug 08:37:49 08:39:55 13° 91° (E) 08:42:00 435.000/436.395/437.385
CUTE-I 25 Aug 08:48:36 08:51:28 15° 299° (WNW) 08:54:19 437.470
ZACube-1 25 Aug 08:58:41 09:01:03 15° 92° (E) 09:03:24 437.345
NOAA 18 25 Aug 09:04:42 09:07:12 13° 302° (WNW) 09:09:41 137.9125
YUBILEINY 25 Aug 09:07:19 09:12:42 17° 298° (WNW) 09:18:07 435.215
RS-15 25 Aug 09:09:18 09:20:19 35° 36° (NE) 09:31:13 29.354- 29.394
Cosmos 2504 25 Aug 09:09:28 09:17:15 39° 286° (WNW) 09:24:38 435.465 / 435.565
SEEDS 25 Aug 09:12:55 09:17:06 71° 283° (WNW) 09:21:17 437.485
TIGRISAT 25 Aug 09:17:06 09:20:23 19° 66° (ENE) 09:23:37 435.000
CANX-2 25 Aug 09:29:02 09:32:40 28° 290° (WNW) 09:36:18 2200.000
CINEMA 3 25 Aug 09:32:32 09:36:19 26° 292° (WNW) 09:39:56 145.822/145.860
SO-50 25 Aug 09:33:27 09:38:04 78° 240° (WSW) 09:42:31 436.795
CUTE 1.7 + AOD 2 25 Aug 09:35:44 09:39:21 28° 290° (WNW) 09:42:57 437.475
UNISAT 6 25 Aug 09:43:36 09:47:52 38° 71° (ENE) 09:52:06 437.425
PRISM 25 Aug 09:47:28 09:50:14 18° 266° (W) 09:53:01 437.425
AIST 1 25 Aug 09:51:30 09:55:50 86° 277° (W) 10:00:14
AAUSAT CUBESAT 2 25 Aug 09:52:28 09:56:27 45° 287° (WNW) 10:00:25 437.432
COMPASS 1 25 Aug 09:57:55 10:01:36 31° 289° (WNW) 10:05:18 437.405
ISS 25 Aug 10:02:35 10:05:50 79° 321° (NW) 10:09:09 145.825
HO-68 25 Aug 10:03:35 10:09:59 37° 296° (WNW) 10:16:21 435.675
BEESAT 2 25 Aug 10:05:31 10:08:27 20° 112° (ESE) 10:11:25 435.950
CUBEBUG 2 25 Aug 10:09:13 10:13:04 33° 289° (WNW) 10:16:48 437.445
HUMSAT D 25 Aug 10:09:19 10:12:11 18° 94° (E) 10:15:02 437.325/437.525
Oscar 11 25 Aug 10:09:50 10:14:09 80° 283° (WNW) 10:18:27 145.826/435.025
UWE-3 25 Aug 10:12:37 10:16:39 45° 287° (WNW) 10:20:36 435.000/436.395/437.385
FUNcube-1 25 Aug 10:13:31 10:17:42 77° 283° (WNW) 10:21:48 145.935
DELFI C3 25 Aug 10:19:56 10:23:52 54° 100° (E) 10:27:47 145.870
ANTELSAT 25 Aug 10:20:16 10:24:55 87° 257° (WSW) 10:29:30 437.575/2403.000
CUSAT 1 25 Aug 10:26:05 10:32:09 54° 78° (ENE) 10:39:30 437.405
BEESAT 3 25 Aug 10:28:14 10:32:07 77° 121° (ESE) 10:36:04 437.485
ZACube-1 25 Aug 10:33:37 10:37:33 41° 288° (WNW) 10:41:26 437.345
M-CUBED/EXP-1 PRIME 25 Aug 10:48:57 10:50:21 12° 94° (E) 10:51:44 437.505
QB50P1 25 Aug 10:51:46 10:55:27 29° 69° (ENE) 10:59:09 145.935-145.965
TIGRISAT 25 Aug 10:52:22 10:56:45 41° 261° (W) 11:01:06 435.000
DANDE 25 Aug 10:56:42 11:01:27 36° 78° (ENE) 11:07:30 436.750
POPSAT HIP 1 25 Aug 11:01:14 11:05:09 36° 71° (ENE) 11:09:04 437.405
BUGSAT 1 25 Aug 11:05:04 11:07:38 16° 65° (ENE) 11:10:11 437.445
UNISAT 6 25 Aug 11:21:15 11:24:40 20° 266° (W) 11:28:04 437.425
RS-15 25 Aug 11:21:57 11:34:24 85° 241° (WSW) 11:46:33 29.354- 29.394
GONETS M04 25 Aug 11:22:04 11:29:21 31° 83° (E) 11:36:39
CUBEBUG 1 25 Aug 11:22:25 11:24:28 13° 91° (E) 11:26:29 437.445
JAS-2 25 Aug 11:26:08 11:30:43 33° 67° (ENE) 11:35:30 435.910
QB50P2 25 Aug 11:30:30 11:34:47 86° 73° (ENE) 11:39:05 145.880/145.840
DUCHIFAT 1 25 Aug 11:31:52 11:36:06 73° 77° (ENE) 11:40:22 145.980
POLYITAN 1 25 Aug 11:33:01 11:37:19 87° 74° (ENE) 11:41:37 437.675
ESTCUBE 1 25 Aug 11:40:23 11:44:28 32° 97° (E) 11:48:32 437.505/2401.250
ISS 25 Aug 11:40:33 11:42:45 17° 341° (NNW) 11:44:59 145.825
DX 1 25 Aug 11:40:55 11:41:40 10° 90° (E) 11:42:26 434.975-435.025
BEESAT 2 25 Aug 11:42:28 11:46:04 33° 308° (NW) 11:49:42 435.950
HUMSAT D 25 Aug 11:44:13 11:47:52 32° 289° (WNW) 11:51:31 437.325/437.525
NANOSAT C BR1 25 Aug 11:44:18 11:48:33 75° 257° (WSW) 11:52:51 145.865
PCSat 25 Aug 11:52:49 11:57:41 35° 110° (ESE) 12:02:35 145.827
SPROUT 25 Aug 11:53:41 11:54:44 11° 90° (E) 11:55:48 437.525
AIST 2 25 Aug 11:55:10 11:56:50 12° 108° (ESE) 11:58:30 435.215
DELFI C3 25 Aug 11:56:46 11:58:14 12° 295° (WNW) 11:59:41 145.870
50 SAT 25 Aug 11:56:54 11:59:50 23° 96° (E) 12:02:46 437.505
AISAT 25 Aug 12:00:12 12:04:06 29° 97° (E) 12:07:57 437.250
BEESAT 3 25 Aug 12:08:43 12:10:19 12° 318° (NW) 12:11:54 437.485
CUSAT 1 25 Aug 12:08:45 12:13:58 27° 269° (W) 12:19:57 437.405
AUBIESAT-1 25 Aug 12:17:51 12:21:59 73° 290° (WNW) 12:25:46 437.475
M-CUBED/EXP-1 PRIME 25 Aug 12:21:11 12:25:19 53° 292° (WNW) 12:29:06 437.505
Cosmos 2499 25 Aug 12:21:20 12:29:24 57° 92° (E) 12:36:54 435.465 / 435.565
UKube-1 25 Aug 12:24:05 12:27:44 26° 96° (E) 12:31:20 .
QB50P1 25 Aug 12:27:47 12:31:12 23° 265° (W) 12:34:38 145.935-145.965
Gurwin Techsat 1B 25 Aug 12:30:53 12:33:18 13° 60° (ENE) 12:35:43 435.225
POPSAT HIP 1 25 Aug 12:38:01 12:41:01 18° 266° (W) 12:44:02 437.405
BUGSAT 1 25 Aug 12:38:33 12:42:37 45° 261° (W) 12:46:43 437.445
DANDE 25 Aug 12:39:30 12:44:07 31° 266° (W) 12:49:53 436.750
VELOX 1 25 Aug 12:47:25 12:51:55 88° 283° (WNW) 12:56:21 145.980
CUBEBUG 1 25 Aug 12:56:43 13:01:04 55° 287° (WNW) 13:05:22 437.445
JAS-2 25 Aug 13:11:31 13:15:53 27° 265° (W) 13:20:25 435.910
DX 1 25 Aug 13:13:55 13:18:17 66° 286° (WNW) 13:22:37 434.975-435.025
GONETS M04 25 Aug 13:17:06 13:25:37 56° 282° (WNW) 13:34:16
ESTCUBE 1 25 Aug 13:17:30 13:21:05 24° 293° (WNW) 13:24:41 437.505/2401.250
Oscar 19 25 Aug 13:17:56 13:23:04 76° 75° (ENE) 13:28:15 437.125/150
ISS 25 Aug 13:19:28 13:20:18 11° 2° (N) 13:21:08 145.825
SPROUT 25 Aug 13:26:50 13:31:04 61° 286° (WNW) 13:35:16 437.525
50 SAT 25 Aug 13:30:32 13:33:18 21° 291° (WNW) 13:36:04 437.505
AIST 2 25 Aug 13:30:45 13:34:47 57° 304° (NW) 13:38:53 435.215
AO-85 25 Aug 13:33:26 13:35:09 12° 38° (NE) 13:36:50 145.980
PCSat 25 Aug 13:36:13 13:41:03 33° 307° (NW) 13:45:57 145.827
AISAT 25 Aug 13:36:46 13:40:26 25° 292° (WNW) 13:44:04 437.250
RS-15 25 Aug 13:36:53 13:44:59 21° 262° (W) 13:53:01 29.354- 29.394
O/OREOS (USA 219) 25 Aug 13:38:37 13:41:59 21° 101° (ESE) 13:45:23 437.305
TISAT 1 25 Aug 13:55:31 13:59:40 57° 100° (E) 14:03:47 437.305
UKube-1 25 Aug 14:00:03 14:03:41 27° 292° (WNW) 14:07:19 .
BEESAT 25 Aug 14:07:03 14:09:32 14° 91° (E) 14:12:00 436.000
Gurwin Techsat 1B 25 Aug 14:07:12 14:12:30 82° 256° (WSW) 14:17:52 435.225
AO-7 25 Aug 14:10:01 14:16:58 31° 57° (ENE) 14:23:54 29.400- 29.500
Cosmos 2499 25 Aug 14:16:02 14:22:49 28° 289° (WNW) 14:29:16 435.465 / 435.565
ITAMSAT 1 25 Aug 14:26:35 14:31:32 47° 71° (ENE) 14:36:29 435.822/435.867
ITUPSAT 1 25 Aug 14:51:08 14:55:37 40° 99° (E) 15:00:05 437.325
ISS 25 Aug 14:55:18 14:57:47 19° 22° (NNE) 15:00:16 145.825
Oscar 19 25 Aug 15:01:02 15:02:56 12° 271° (W) 15:04:50 437.125/150
AO-85 25 Aug 15:12:03 15:16:19 88° 239° (WSW) 15:20:16 145.980
O/OREOS (USA 219) 25 Aug 15:17:03 15:21:09 34° 298° (WNW) 15:25:17 437.305
SWISSCUBE 25 Aug 15:25:28 15:30:15 79° 284° (WNW) 15:34:59 437.505
TISAT 1 25 Aug 15:33:02 15:34:49 12° 297° (WNW) 15:36:35 437.305
BEESAT 25 Aug 15:42:59 15:47:40 58° 287° (WNW) 15:52:19 436.000
AO-7 25 Aug 16:00:54 16:09:10 63° 256° (WSW) 16:17:28 29.400- 29.500
ITAMSAT 1 25 Aug 16:07:27 16:11:12 20° 266° (W) 16:15:00 435.822/435.867
BRITE-PL 25 Aug 16:14:41 16:16:06 11° 58° (ENE) 16:17:33 437.365/2234.400
MOZHAYETS 4 25 Aug 16:18:42 16:23:09 50° 100° (E) 16:27:35
ITUPSAT 1 25 Aug 16:29:36 16:33:10 21° 294° (WNW) 16:36:44 437.325
KKS-1 25 Aug 16:31:15 16:35:37 51° 100° (E) 16:39:57 437.445
ISS 25 Aug 16:31:17 16:34:33 72° 220° (SW) 16:37:49 145.825
Cubesat XI-IV 25 Aug 16:39:48 16:41:16 11° 58° (ENE) 16:42:44 437.490
HORYU 2 25 Aug 16:50:40 16:55:07 67° 74° (ENE) 16:59:33 437.375
CUTE-I 25 Aug 16:50:57 16:53:46 15° 60° (ENE) 16:56:35 437.470
NOAA 15 25 Aug 16:59:04 17:03:00 22° 64° (ENE) 17:06:58 137.62
Cosmos 2491 25 Aug 16:59:54 17:05:02 17° 77° (ENE) 17:10:09 435.465 / 435.565
NOAA 18 25 Aug 17:08:44 17:12:45 21° 63° (ENE) 17:16:46 137.9125
Cosmos 2504 25 Aug 17:12:37 17:14:45 11° 60° (ENE) 17:16:53 435.465 / 435.565
STARS 25 Aug 17:13:57 17:18:23 75° 102° (ESE) 17:22:45 437.465
YUBILEINY 25 Aug 17:17:07 17:25:32 47° 75° (ENE) 17:33:48 435.215
CUBESAT XI-V 25 Aug 17:32:02 17:36:25 38° 98° (E) 17:40:47 437.345
